Location: Unspecified
(0.0000°N, 0.0000°E)
Time: 14:19:36
(UTC+00:00)

Courier 1B - Pass Details

Date: 14 February 2026
Orbit: 962 x 1208 km, 28.3° (Epoch: 16 March)

Event Time Altitude Azimuth Distance (km) Brightness Sun altitude
Exits shadow 03:23:36 24° 53° (NE) 2,116 9.4 -41.3°
Drops below altitude 10° 03:27:28 10° 82° (E) 2,933 10.6 -40.4°
Sets 03:30:35 0° 94° (E) 3,847 11.5 -39.6°
